Skip Navigation Links
NOAA logo - Click to go to the NOAA homepage
NOAA's National Weather Service
Alaska Aviation Weather Unit
  NWS logo - Click to go to the NWS homepage
Left Navbar Graphic     17 AKDT = 01 GMT

   
NOAA is celebrating 200 years of science, service, and stewardship. Visit the NOAA 200th celebration Web site to learn more.
USA.gov is the U.S. Government's official Web portal to all Federal, state and local government Web resources and services.
Facebook
NWS on Facebook

Important Change Regarding the AAWU Web Presence

 

Over the last several months, the AAWU has been working to navigate its webpages to a nationally supported server. Security, as well as other needs, have necessitated the change.  In the process, we have made an effort to enhance the functionality of our website, as well as some of our products. As of June 27, 2017, aawu.arh.noaa.gov will be discontinued. The new AAWU web address is weather.gov/aawu. It is now live and will run in-parallel with the old site until it is discontinued. Please send any feedback or questions regarding the new webpages to nws.ar.aawu.webauthors@noaa.gov.  Thank you for your patience during this time of transition.
AAWU Home :: Display TAF Add Bookmark
TAF PAJN 252324Z 2600/2624 24008KT P6SM -SHRA FEW007 BKN060 OVC080
      TEMPO 2600/2604 VRB04KT 6SM -SHRA BR SCT007 BKN015 OVC060
     FM260600 VRB04KT P6SM VCSH SCT025 BKN060
     FM261500 30005KT P6SM FEW005 BKN060=

METAR PAJN 251953Z 23006KT 10SM -RA SCT007 OVC070 13/12 A2997= METAR PAJN 252053Z 00000KT 10SM -RA FEW007 BKN065 OVC080 14/12 A2996= METAR PAJN 252153Z 24007KT 10SM -RA FEW007 BKN060 OVC070 14/12 A2996= METAR PAJN 252253Z 23006KT 10SM -RA FEW007 BKN065 OVC085 14/13 A2996= METAR PAJN 252353Z 08007KT 10SM -RA FEW008TCU SCT024 OVC085 14/13 A2997= METAR PAJN 260053Z 06007KT 10SM -RA FEW008 SCT025 OVC050 13/12 A2996=
 Alaska TAF Map

NOAA's National Weather Service
Alaska Aviation Weather Unit
6930 Sand Lake Road
Anchorage, AK 99502-1845
Disclaimer
Credits
Glossary
Privacy Policy
About Us
Career Opportunities
Contact AAWU Internet Services Site last modified: April, 17th 2012